Year,Month,Day,Hour,Minute,Value (Times are PST for windspeed in km/hr)
2009,03,15,00,00,6.80
2009,03,15,00,01,8.70
2009,03,15,00,02,6.30
2009,03,15,00,03,6.70
2009,03,15,00,04,5.10
2009,03,15,00,05,7.30
2009,03,15,00,06,7.50
2009,03,15,00,07,6.80
2009,03,15,00,08,7.50
2009,03,15,00,09,10.60
2009,03,15,00,10,7.00
2009,03,15,00,11,3.70
2009,03,15,00,12,4.80
2009,03,15,00,13,6.00
2009,03,15,00,14,4.80
2009,03,15,00,15,6.10
2009,03,15,00,16,3.40
2009,03,15,00,17,6.90
2009,03,15,00,18,5.80
2009,03,15,00,19,5.60
2009,03,15,00,20,4.50
2009,03,15,00,21,4.50
2009,03,15,00,22,5.60
2009,03,15,00,23,4.30
2009,03,15,00,24,3.90
2009,03,15,00,25,5.50
2009,03,15,00,26,7.50
2009,03,15,00,27,3.80
2009,03,15,00,28,2.80
2009,03,15,00,29,4.10
2009,03,15,00,30,4.90
2009,03,15,00,31,2.20
2009,03,15,00,32,4.30
2009,03,15,00,33,4.90
2009,03,15,00,34,7.50
2009,03,15,00,35,2.70
2009,03,15,00,36,3.90
2009,03,15,00,37,3.00
2009,03,15,00,38,5.10
2009,03,15,00,39,6.20
2009,03,15,00,40,8.10
2009,03,15,00,41,4.90
2009,03,15,00,42,5.00
2009,03,15,00,43,4.00
2009,03,15,00,44,2.30
2009,03,15,00,45,2.50
2009,03,15,00,46,4.40
2009,03,15,00,47,7.90
2009,03,15,00,48,6.40
2009,03,15,00,49,5.10
2009,03,15,00,50,3.10
2009,03,15,00,51,5.20
2009,03,15,00,52,5.70
2009,03,15,00,53,3.30
2009,03,15,00,54,4.70
2009,03,15,00,55,3.10
2009,03,15,00,56,6.40
2009,03,15,00,57,2.90
2009,03,15,00,58,4.60
2009,03,15,00,59,4.00
2009,03,15,01,00,4.70
2009,03,15,01,01,6.50
2009,03,15,01,02,2.70
2009,03,15,01,03,2.90
2009,03,15,01,04,1.40
2009,03,15,01,05,3.70
2009,03,15,01,06,3.80
2009,03,15,01,07,3.80
2009,03,15,01,08,5.00
2009,03,15,01,09,4.00
2009,03,15,01,10,4.60
2009,03,15,01,11,2.60
2009,03,15,01,12,1.30
2009,03,15,01,13,4.80
2009,03,15,01,14,3.30
2009,03,15,01,15,3.30
2009,03,15,01,16,4.50
2009,03,15,01,17,1.30
2009,03,15,01,18,3.40
2009,03,15,01,19,5.40
2009,03,15,01,20,0.60
2009,03,15,01,21,5.30
2009,03,15,01,22,4.10
2009,03,15,01,23,2.40
2009,03,15,01,24,2.40
2009,03,15,01,25,2.50
2009,03,15,01,26,4.20
2009,03,15,01,27,4.00
2009,03,15,01,28,5.10
2009,03,15,01,29,4.00
2009,03,15,01,30,7.10
2009,03,15,01,31,4.50
2009,03,15,01,32,4.20
2009,03,15,01,33,3.10
2009,03,15,01,34,4.10
2009,03,15,01,35,0.50
2009,03,15,01,36,2.60
2009,03,15,01,37,0.50
2009,03,15,01,38,3.90
2009,03,15,01,39,9.70
2009,03,15,01,40,6.80
2009,03,15,01,41,8.00
2009,03,15,01,42,7.90
2009,03,15,01,43,6.40
2009,03,15,01,44,4.30
2009,03,15,01,45,6.40
2009,03,15,01,46,5.60
2009,03,15,01,47,3.20
2009,03,15,01,48,1.30
2009,03,15,01,49,0.60
2009,03,15,01,50,3.40
2009,03,15,01,51,2.90
2009,03,15,01,52,4.00
2009,03,15,01,53,4.60
2009,03,15,01,54,6.60
2009,03,15,01,55,5.50
2009,03,15,01,56,5.10
2009,03,15,01,57,7.60
2009,03,15,01,58,11.10
2009,03,15,01,59,6.60
2009,03,15,02,00,6.20
2009,03,15,02,01,4.90
2009,03,15,02,02,3.70
2009,03,15,02,03,7.70
2009,03,15,02,04,8.00
2009,03,15,02,05,2.10
2009,03,15,02,06,2.60
2009,03,15,02,07,4.80
2009,03,15,02,08,4.40
2009,03,15,02,09,6.40
2009,03,15,02,10,3.80
2009,03,15,02,11,4.10
2009,03,15,02,12,5.10
2009,03,15,02,13,2.40
2009,03,15,02,14,2.30
2009,03,15,02,15,4.10
2009,03,15,02,16,4.60
2009,03,15,02,17,2.00
2009,03,15,02,18,2.20
2009,03,15,02,19,1.50
2009,03,15,02,20,5.60
2009,03,15,02,21,4.30
2009,03,15,02,22,1.40
2009,03,15,02,23,2.10
2009,03,15,02,24,0.50
2009,03,15,02,25,2.60
2009,03,15,02,26,3.60
2009,03,15,02,27,4.40
2009,03,15,02,28,2.70
2009,03,15,02,29,5.60
2009,03,15,02,30,2.30
2009,03,15,02,31,0.50
2009,03,15,02,32,2.90
2009,03,15,02,33,1.00
2009,03,15,02,34,2.40
2009,03,15,02,35,1.50
2009,03,15,02,36,0.80
2009,03,15,02,37,1.20
2009,03,15,02,38,0.90
2009,03,15,02,39,1.90
2009,03,15,02,40,0.90
2009,03,15,02,41,0.00
2009,03,15,02,42,0.00
2009,03,15,02,43,1.00
2009,03,15,02,44,0.90
2009,03,15,02,45,0.30
2009,03,15,02,46,2.20
2009,03,15,02,47,1.90
2009,03,15,02,48,1.00
2009,03,15,02,49,3.40
2009,03,15,02,50,0.90
2009,03,15,02,51,1.30
2009,03,15,02,52,0.00
2009,03,15,02,53,0.00
2009,03,15,02,54,0.00
2009,03,15,02,55,0.00
2009,03,15,02,56,0.00
2009,03,15,02,57,0.00
2009,03,15,02,58,0.00
2009,03,15,02,59,0.00
2009,03,15,03,00,0.00
2009,03,15,03,01,0.10
2009,03,15,03,02,0.00
2009,03,15,03,03,0.00
2009,03,15,03,04,0.00
2009,03,15,03,05,0.00
2009,03,15,03,06,0.00
2009,03,15,03,07,0.00
2009,03,15,03,08,0.00
2009,03,15,03,09,0.00
2009,03,15,03,10,0.00
2009,03,15,03,11,0.00
2009,03,15,03,12,0.00
2009,03,15,03,13,0.00
2009,03,15,03,14,0.00
2009,03,15,03,15,0.00
2009,03,15,03,16,0.00
2009,03,15,03,17,0.00
2009,03,15,03,18,0.00
2009,03,15,03,19,0.00
2009,03,15,03,20,0.00
2009,03,15,03,21,0.00
2009,03,15,03,22,0.00
2009,03,15,03,23,0.00
2009,03,15,03,24,0.00
2009,03,15,03,25,0.00
2009,03,15,03,26,0.00
2009,03,15,03,27,0.00
2009,03,15,03,28,0.00
2009,03,15,03,29,0.00
2009,03,15,03,30,0.00
2009,03,15,03,31,0.00
2009,03,15,03,32,0.00
2009,03,15,03,33,1.20
2009,03,15,03,34,0.00
2009,03,15,03,35,0.00
2009,03,15,03,36,0.00
2009,03,15,03,37,0.00
2009,03,15,03,38,0.00
2009,03,15,03,39,0.00
2009,03,15,03,40,0.00
2009,03,15,03,41,0.00
2009,03,15,03,42,0.00
2009,03,15,03,43,0.00
2009,03,15,03,44,0.00
2009,03,15,03,45,0.00
2009,03,15,03,46,0.00
2009,03,15,03,47,0.00
2009,03,15,03,48,0.00
2009,03,15,03,49,0.00
2009,03,15,03,50,0.00
2009,03,15,03,51,0.00
2009,03,15,03,52,0.00
2009,03,15,03,53,0.00
2009,03,15,03,54,0.00
2009,03,15,03,55,0.00
2009,03,15,03,56,0.00
2009,03,15,03,57,0.10
2009,03,15,03,58,0.00
2009,03,15,03,59,0.30
2009,03,15,04,00,1.60
2009,03,15,04,01,0.20
2009,03,15,04,02,0.00
2009,03,15,04,03,0.00
2009,03,15,04,04,3.20
2009,03,15,04,05,0.70
2009,03,15,04,06,0.20
2009,03,15,04,07,0.00
2009,03,15,04,08,0.00
2009,03,15,04,09,0.00
2009,03,15,04,10,0.00
2009,03,15,04,11,0.00
2009,03,15,04,12,0.00
2009,03,15,04,13,0.00
2009,03,15,04,14,0.00
2009,03,15,04,15,0.00
2009,03,15,04,16,0.00
2009,03,15,04,17,0.00
2009,03,15,04,18,0.00
2009,03,15,04,19,0.80
2009,03,15,04,20,2.00
2009,03,15,04,21,2.10
2009,03,15,04,22,1.20
2009,03,15,04,23,0.00
2009,03,15,04,24,0.20
2009,03,15,04,25,0.00
2009,03,15,04,26,1.20
2009,03,15,04,27,0.10
2009,03,15,04,28,0.00
2009,03,15,04,29,0.10
2009,03,15,04,30,1.70
2009,03,15,04,31,0.00
2009,03,15,04,32,1.30
2009,03,15,04,33,1.80
2009,03,15,04,34,1.00
2009,03,15,04,35,0.60
2009,03,15,04,36,0.20
2009,03,15,04,37,0.00
2009,03,15,04,38,1.30
2009,03,15,04,39,0.40
2009,03,15,04,40,0.10
2009,03,15,04,41,1.00
2009,03,15,04,42,1.20
2009,03,15,04,43,1.60
2009,03,15,04,44,0.80
2009,03,15,04,45,0.30
2009,03,15,04,46,0.00
2009,03,15,04,47,3.70
2009,03,15,04,48,1.60
2009,03,15,04,49,0.30
2009,03,15,04,50,3.80
2009,03,15,04,51,2.00
2009,03,15,04,52,2.10
2009,03,15,04,53,0.00
2009,03,15,04,54,1.20
2009,03,15,04,55,2.00
2009,03,15,04,56,1.00
2009,03,15,04,57,1.80
2009,03,15,04,58,1.80
2009,03,15,04,59,3.60
2009,03,15,05,00,0.00
2009,03,15,05,01,1.40
2009,03,15,05,02,0.70
2009,03,15,05,03,1.40
2009,03,15,05,04,0.80
2009,03,15,05,05,1.00
2009,03,15,05,06,3.50
2009,03,15,05,07,0.90
2009,03,15,05,08,0.10
2009,03,15,05,09,0.00
2009,03,15,05,10,1.20
2009,03,15,05,11,3.00
2009,03,15,05,12,1.30
2009,03,15,05,13,1.50
2009,03,15,05,14,3.30
2009,03,15,05,15,4.60
2009,03,15,05,16,3.40
2009,03,15,05,17,3.70
2009,03,15,05,18,5.50
2009,03,15,05,19,3.60
2009,03,15,05,20,5.20
2009,03,15,05,21,6.90
2009,03,15,05,22,5.10
2009,03,15,05,23,4.50
2009,03,15,05,24,2.50
2009,03,15,05,25,5.50
2009,03,15,05,26,0.70
2009,03,15,05,27,3.10
2009,03,15,05,28,2.20
2009,03,15,05,29,1.30
2009,03,15,05,30,2.20
2009,03,15,05,31,2.60
2009,03,15,05,32,1.20
2009,03,15,05,33,4.00
2009,03,15,05,34,4.30
2009,03,15,05,35,6.40
2009,03,15,05,36,6.60
2009,03,15,05,37,2.70
2009,03,15,05,38,3.70
2009,03,15,05,39,6.90
2009,03,15,05,40,5.30
2009,03,15,05,41,2.90
2009,03,15,05,42,1.50
2009,03,15,05,43,4.50
2009,03,15,05,44,5.50
2009,03,15,05,45,5.20
2009,03,15,05,46,5.00
2009,03,15,05,47,4.10
2009,03,15,05,48,3.10
2009,03,15,05,49,0.40
2009,03,15,05,50,3.00
2009,03,15,05,51,1.10
2009,03,15,05,52,1.50
2009,03,15,05,53,4.60
2009,03,15,05,54,1.30
2009,03,15,05,55,2.60
2009,03,15,05,56,2.40
2009,03,15,05,57,1.30
2009,03,15,05,58,1.10
2009,03,15,05,59,2.70
2009,03,15,06,00,5.50
2009,03,15,06,01,2.40
2009,03,15,06,02,2.70
2009,03,15,06,03,5.30
2009,03,15,06,04,2.10
2009,03,15,06,05,4.10
2009,03,15,06,06,3.30
2009,03,15,06,07,3.80
2009,03,15,06,08,3.90
2009,03,15,06,09,2.80
2009,03,15,06,10,3.00
2009,03,15,06,11,6.30
2009,03,15,06,12,2.60
2009,03,15,06,13,4.90
2009,03,15,06,14,4.00
2009,03,15,06,15,3.80
2009,03,15,06,16,4.40
2009,03,15,06,17,7.40
2009,03,15,06,18,2.80
2009,03,15,06,19,5.50
2009,03,15,06,20,3.80
2009,03,15,06,21,2.30
2009,03,15,06,22,4.40
2009,03,15,06,23,3.10
2009,03,15,06,24,2.70
2009,03,15,06,25,3.90
2009,03,15,06,26,2.50
2009,03,15,06,27,2.60
2009,03,15,06,28,2.90
2009,03,15,06,29,6.10
2009,03,15,06,30,4.70
2009,03,15,06,31,5.60
2009,03,15,06,32,6.20
2009,03,15,06,33,1.70
2009,03,15,06,34,2.30
2009,03,15,06,35,0.80
2009,03,15,06,36,0.10
2009,03,15,06,37,0.00
2009,03,15,06,38,0.90
2009,03,15,06,39,4.70
2009,03,15,06,40,5.80
2009,03,15,06,41,3.50
2009,03,15,06,42,1.70
2009,03,15,06,43,2.40
2009,03,15,06,44,2.00
2009,03,15,06,45,1.90
2009,03,15,06,46,3.90
2009,03,15,06,47,2.80
2009,03,15,06,48,3.70
2009,03,15,06,49,3.70
2009,03,15,06,50,4.00
2009,03,15,06,51,3.10
2009,03,15,06,52,6.60
2009,03,15,06,53,8.60
2009,03,15,06,54,7.00
2009,03,15,06,55,3.20
2009,03,15,06,56,1.50
2009,03,15,06,57,3.10
2009,03,15,06,58,6.40
2009,03,15,06,59,3.90
2009,03,15,07,00,5.40
2009,03,15,07,01,1.70
2009,03,15,07,02,0.90
2009,03,15,07,03,2.80
2009,03,15,07,04,3.30
2009,03,15,07,05,5.20
2009,03,15,07,06,4.70
2009,03,15,07,07,4.40
2009,03,15,07,08,2.60
2009,03,15,07,09,3.10
2009,03,15,07,10,6.00
2009,03,15,07,11,1.70
2009,03,15,07,12,4.60
2009,03,15,07,13,1.90
2009,03,15,07,14,6.80
2009,03,15,07,15,3.90
2009,03,15,07,16,4.00
2009,03,15,07,17,3.10
2009,03,15,07,18,0.60
2009,03,15,07,19,4.30
2009,03,15,07,20,3.60
2009,03,15,07,21,7.40
2009,03,15,07,22,7.80
2009,03,15,07,23,5.30
2009,03,15,07,24,5.10
2009,03,15,07,25,2.20
2009,03,15,07,26,2.20
2009,03,15,07,27,2.10
2009,03,15,07,28,3.90
2009,03,15,07,29,4.60
2009,03,15,07,30,4.00
2009,03,15,07,31,4.50
2009,03,15,07,32,5.00
2009,03,15,07,33,3.60
2009,03,15,07,34,5.70
2009,03,15,07,35,7.20
2009,03,15,07,36,6.30
2009,03,15,07,37,2.70
2009,03,15,07,38,4.10
2009,03,15,07,39,2.50
2009,03,15,07,40,6.70
2009,03,15,07,41,4.00
2009,03,15,07,42,3.30
2009,03,15,07,43,3.70
2009,03,15,07,44,2.30
2009,03,15,07,45,1.60
2009,03,15,07,46,9.30
2009,03,15,07,47,5.60
2009,03,15,07,48,3.20
2009,03,15,07,49,5.80
2009,03,15,07,50,6.50
2009,03,15,07,51,3.60
2009,03,15,07,52,4.30
2009,03,15,07,53,1.80
2009,03,15,07,54,3.10
2009,03,15,07,55,9.30
2009,03,15,07,56,3.20
2009,03,15,07,57,3.40
2009,03,15,07,58,4.50
2009,03,15,07,59,7.50
2009,03,15,08,00,0.80
2009,03,15,08,01,5.40
2009,03,15,08,02,3.00
2009,03,15,08,03,3.60
2009,03,15,08,04,2.90
2009,03,15,08,05,6.70
2009,03,15,08,06,7.50
2009,03,15,08,07,4.30
2009,03,15,08,08,4.90
2009,03,15,08,09,6.80
2009,03,15,08,10,5.60
2009,03,15,08,11,6.50
2009,03,15,08,12,4.30
2009,03,15,08,13,4.30
2009,03,15,08,14,1.00
2009,03,15,08,15,5.60
2009,03,15,08,16,3.80
2009,03,15,08,17,5.50
2009,03,15,08,18,2.10
2009,03,15,08,19,5.60
2009,03,15,08,20,7.20
2009,03,15,08,21,5.50
2009,03,15,08,22,4.00
2009,03,15,08,23,6.10
2009,03,15,08,24,4.80
2009,03,15,08,25,2.90
2009,03,15,08,26,3.10
2009,03,15,08,27,6.30
2009,03,15,08,28,7.40
2009,03,15,08,29,2.00
2009,03,15,08,30,2.10
2009,03,15,08,31,3.20
2009,03,15,08,32,4.60
2009,03,15,08,33,11.40
2009,03,15,08,34,7.00
2009,03,15,08,35,4.50
2009,03,15,08,36,8.60
2009,03,15,08,37,6.60
2009,03,15,08,38,7.90
2009,03,15,08,39,9.50
2009,03,15,08,40,4.40
2009,03,15,08,41,5.80
2009,03,15,08,42,3.40
2009,03,15,08,43,4.40
2009,03,15,08,44,4.30
2009,03,15,08,45,6.50
2009,03,15,08,46,5.20
2009,03,15,08,47,9.70
2009,03,15,08,48,5.60
2009,03,15,08,49,9.10
2009,03,15,08,50,14.60
2009,03,15,08,51,6.60
2009,03,15,08,52,6.30
2009,03,15,08,53,14.20
2009,03,15,08,54,9.60
2009,03,15,08,55,7.80
2009,03,15,08,56,3.80
2009,03,15,08,57,13.40
2009,03,15,08,58,12.20
2009,03,15,08,59,9.00
2009,03,15,09,00,11.80
2009,03,15,09,01,9.70
2009,03,15,09,02,11.70
2009,03,15,09,03,8.90
2009,03,15,09,04,9.80
2009,03,15,09,05,7.30
2009,03,15,09,06,8.00
2009,03,15,09,07,6.90
2009,03,15,09,08,7.90
2009,03,15,09,09,9.30
2009,03,15,09,10,8.00
2009,03,15,09,11,13.10
2009,03,15,09,12,6.40
2009,03,15,09,13,11.20
2009,03,15,09,14,4.70
2009,03,15,09,15,4.70
2009,03,15,09,16,7.60
2009,03,15,09,17,7.20
2009,03,15,09,18,10.20
2009,03,15,09,19,8.90
2009,03,15,09,20,7.20
2009,03,15,09,21,6.40
2009,03,15,09,22,15.00
2009,03,15,09,23,8.30
2009,03,15,09,24,8.20
2009,03,15,09,25,5.60
2009,03,15,09,26,6.00
2009,03,15,09,27,3.10
2009,03,15,09,28,5.70
2009,03,15,09,29,6.00
2009,03,15,09,30,7.30
2009,03,15,09,31,13.70
2009,03,15,09,32,8.90
2009,03,15,09,33,6.80
2009,03,15,09,34,9.40
2009,03,15,09,35,6.20
2009,03,15,09,36,5.30
2009,03,15,09,37,13.80
2009,03,15,09,38,4.80
2009,03,15,09,39,7.80
2009,03,15,09,40,6.00
2009,03,15,09,41,2.90
2009,03,15,09,42,4.10
2009,03,15,09,43,6.40
2009,03,15,09,44,13.90
2009,03,15,09,45,8.00
2009,03,15,09,46,10.20
2009,03,15,09,47,11.30
2009,03,15,09,48,5.60
2009,03,15,09,49,11.90
2009,03,15,09,50,7.40
2009,03,15,09,51,14.50
2009,03,15,09,52,8.70
2009,03,15,09,53,16.10
2009,03,15,09,54,9.10
2009,03,15,09,55,6.50
2009,03,15,09,56,8.00
2009,03,15,09,57,10.50
2009,03,15,09,58,5.90
2009,03,15,09,59,12.60
2009,03,15,10,00,5.00
2009,03,15,10,01,7.90
2009,03,15,10,02,5.40
2009,03,15,10,03,6.90
2009,03,15,10,04,5.10
2009,03,15,10,05,6.40
2009,03,15,10,06,9.00
2009,03,15,10,07,9.60
2009,03,15,10,08,13.50
2009,03,15,10,09,8.00
2009,03,15,10,10,3.80
2009,03,15,10,11,6.20
2009,03,15,10,12,6.40
2009,03,15,10,13,11.20
2009,03,15,10,14,4.70
2009,03,15,10,15,5.50
2009,03,15,10,16,2.10
2009,03,15,10,17,8.50
2009,03,15,10,18,8.20
2009,03,15,10,19,4.70
2009,03,15,10,20,8.00
2009,03,15,10,21,10.30
2009,03,15,10,22,7.60
2009,03,15,10,23,8.80
2009,03,15,10,24,12.50
2009,03,15,10,25,10.60
2009,03,15,10,26,6.50
2009,03,15,10,27,3.20
2009,03,15,10,28,4.40
2009,03,15,10,29,12.40
2009,03,15,10,30,5.50
2009,03,15,10,31,5.00
2009,03,15,10,32,5.50
2009,03,15,10,33,4.70
2009,03,15,10,34,5.20
2009,03,15,10,35,8.90
2009,03,15,10,36,8.50
2009,03,15,10,37,13.40
2009,03,15,10,38,12.20
2009,03,15,10,39,10.70
2009,03,15,10,40,11.30
2009,03,15,10,41,8.90
2009,03,15,10,42,6.40
2009,03,15,10,43,6.60
2009,03,15,10,44,7.60
2009,03,15,10,45,2.90
2009,03,15,10,46,5.20
2009,03,15,10,47,11.60
2009,03,15,10,48,4.10
2009,03,15,10,49,6.20
2009,03,15,10,50,4.20
2009,03,15,10,51,0.30
2009,03,15,10,52,3.90
2009,03,15,10,53,7.10
2009,03,15,10,54,4.10
2009,03,15,10,55,3.80
2009,03,15,10,56,4.30
2009,03,15,10,57,3.80
2009,03,15,10,58,8.30
2009,03,15,10,59,6.00
2009,03,15,11,00,8.50
2009,03,15,11,01,9.90
2009,03,15,11,02,10.60
2009,03,15,11,03,8.30
2009,03,15,11,04,4.80
2009,03,15,11,05,3.80
2009,03,15,11,06,5.40
2009,03,15,11,07,4.40
2009,03,15,11,08,5.60
2009,03,15,11,09,4.00
2009,03,15,11,10,1.60
2009,03,15,11,11,0.00
2009,03,15,11,12,0.10
2009,03,15,11,13,3.60
2009,03,15,11,14,3.90
2009,03,15,11,15,1.30
2009,03,15,11,16,2.30
2009,03,15,11,17,1.50
2009,03,15,11,18,5.70
2009,03,15,11,19,3.60
2009,03,15,11,20,3.90
2009,03,15,11,21,3.50
2009,03,15,11,22,6.60
2009,03,15,11,23,8.40
2009,03,15,11,24,6.40
2009,03,15,11,25,5.20
2009,03,15,11,26,3.40
2009,03,15,11,27,7.10
2009,03,15,11,28,2.20
2009,03,15,11,29,4.60
2009,03,15,11,30,9.30
2009,03,15,11,31,7.10
2009,03,15,11,32,5.60
2009,03,15,11,33,2.70
2009,03,15,11,34,1.40
2009,03,15,11,35,2.40
2009,03,15,11,36,1.70
2009,03,15,11,37,3.60
2009,03,15,11,38,6.60
2009,03,15,11,39,6.70
2009,03,15,11,40,3.30
2009,03,15,11,41,3.10
2009,03,15,11,42,0.70
2009,03,15,11,43,3.00
2009,03,15,11,44,7.00
2009,03,15,11,45,7.50
2009,03,15,11,46,4.60
2009,03,15,11,47,5.10
2009,03,15,11,48,4.40
2009,03,15,11,49,6.70
2009,03,15,11,50,3.10
2009,03,15,11,51,2.90
2009,03,15,11,52,1.40
2009,03,15,11,53,0.00
2009,03,15,11,54,2.60
2009,03,15,11,55,2.90
2009,03,15,11,56,3.30
2009,03,15,11,57,3.90
2009,03,15,11,58,5.10
2009,03,15,11,59,0.80
2009,03,15,12,00,1.90
2009,03,15,12,01,1.80
2009,03,15,12,02,0.00
2009,03,15,12,03,3.60
2009,03,15,12,04,2.10
2009,03,15,12,05,4.10
2009,03,15,12,06,4.00
2009,03,15,12,07,2.20
2009,03,15,12,08,3.20
2009,03,15,12,09,6.20
2009,03,15,12,10,2.00
2009,03,15,12,11,0.70
2009,03,15,12,12,0.00
2009,03,15,12,13,0.90
2009,03,15,12,14,1.60
2009,03,15,12,15,4.30
2009,03,15,12,16,6.00
2009,03,15,12,17,3.00
2009,03,15,12,18,2.90
2009,03,15,12,19,0.60
2009,03,15,12,20,0.60
2009,03,15,12,21,0.00
2009,03,15,12,22,1.00
2009,03,15,12,23,0.10
2009,03,15,12,24,0.10
2009,03,15,12,25,0.00
2009,03,15,12,26,0.00
2009,03,15,12,27,0.00
2009,03,15,12,28,0.00
2009,03,15,12,29,0.00
2009,03,15,12,30,0.20
2009,03,15,12,31,1.50
2009,03,15,12,32,0.00
2009,03,15,12,33,0.00
2009,03,15,12,34,0.00
2009,03,15,12,35,0.00
2009,03,15,12,36,0.00
2009,03,15,12,37,1.10
2009,03,15,12,38,0.00
2009,03,15,12,39,0.00
2009,03,15,12,40,0.00
2009,03,15,12,41,0.00
2009,03,15,12,42,0.70
2009,03,15,12,43,1.10
2009,03,15,12,44,1.20
2009,03,15,12,45,0.00
2009,03,15,12,46,1.30
2009,03,15,12,47,1.20
2009,03,15,12,48,0.10
2009,03,15,12,49,0.00
2009,03,15,12,50,0.00
2009,03,15,12,51,0.00
2009,03,15,12,52,0.00
2009,03,15,12,53,1.70
2009,03,15,12,54,0.50
2009,03,15,12,55,1.60
2009,03,15,12,56,0.30
2009,03,15,12,57,1.10
2009,03,15,12,58,0.80
2009,03,15,12,59,0.20
2009,03,15,13,00,0.00
2009,03,15,13,01,0.60
2009,03,15,13,02,3.20
2009,03,15,13,03,2.10
2009,03,15,13,04,0.70
2009,03,15,13,05,3.50
2009,03,15,13,06,1.50
2009,03,15,13,07,1.10
2009,03,15,13,08,0.40
2009,03,15,13,09,0.20
2009,03,15,13,10,2.40
2009,03,15,13,11,1.40
2009,03,15,13,12,1.40
2009,03,15,13,13,0.10
2009,03,15,13,14,1.20
2009,03,15,13,15,0.50
2009,03,15,13,16,0.10
2009,03,15,13,17,0.40
2009,03,15,13,18,0.50
2009,03,15,13,19,0.60
2009,03,15,13,20,1.10
2009,03,15,13,21,2.60
2009,03,15,13,22,3.10
2009,03,15,13,23,0.20
2009,03,15,13,24,0.00
2009,03,15,13,25,0.00
2009,03,15,13,26,3.50
2009,03,15,13,27,0.30
2009,03,15,13,28,0.70
2009,03,15,13,29,1.10
2009,03,15,13,30,2.70
2009,03,15,13,31,0.60
2009,03,15,13,32,2.60
2009,03,15,13,33,1.70
2009,03,15,13,34,0.10
2009,03,15,13,35,0.20
2009,03,15,13,36,0.60
2009,03,15,13,37,0.10
2009,03,15,13,38,2.70
2009,03,15,13,39,5.50
2009,03,15,13,40,2.30
2009,03,15,13,41,1.80
2009,03,15,13,42,6.10
2009,03,15,13,43,4.60
2009,03,15,13,44,0.00
2009,03,15,13,45,1.80
2009,03,15,13,46,3.30
2009,03,15,13,47,4.60
2009,03,15,13,48,1.90
2009,03,15,13,49,2.80
2009,03,15,13,50,2.60
2009,03,15,13,51,2.80
2009,03,15,13,52,7.40
2009,03,15,13,53,8.30
2009,03,15,13,54,4.50
2009,03,15,13,55,7.00
2009,03,15,13,56,5.10
2009,03,15,13,57,8.80
2009,03,15,13,58,3.90
2009,03,15,13,59,4.90
2009,03,15,14,00,5.80
2009,03,15,14,01,3.30
2009,03,15,14,02,9.70
2009,03,15,14,03,7.30
2009,03,15,14,04,9.00
2009,03,15,14,05,6.40
2009,03,15,14,06,9.60
2009,03,15,14,07,3.60
2009,03,15,14,08,6.60
2009,03,15,14,09,9.70
2009,03,15,14,10,4.90
2009,03,15,14,11,6.40
2009,03,15,14,12,11.10
2009,03,15,14,13,7.00
2009,03,15,14,14,6.80
2009,03,15,14,15,5.80
2009,03,15,14,16,7.80
2009,03,15,14,17,12.10
2009,03,15,14,18,7.20
2009,03,15,14,19,16.90
2009,03,15,14,20,8.50
2009,03,15,14,21,10.20
2009,03,15,14,22,7.70
2009,03,15,14,23,7.70
2009,03,15,14,24,11.00
2009,03,15,14,25,8.90
2009,03,15,14,26,6.70
2009,03,15,14,27,5.40
2009,03,15,14,28,2.50
2009,03,15,14,29,4.30
2009,03,15,14,30,5.80
2009,03,15,14,31,1.30
2009,03,15,14,32,8.40
2009,03,15,14,33,7.70
2009,03,15,14,34,3.80
2009,03,15,14,35,1.90
2009,03,15,14,36,5.80
2009,03,15,14,37,6.50
2009,03,15,14,38,6.10
2009,03,15,14,39,5.40
2009,03,15,14,40,6.80
2009,03,15,14,41,6.10
2009,03,15,14,42,14.00
2009,03,15,14,43,7.10
2009,03,15,14,44,6.40
2009,03,15,14,45,8.90
2009,03,15,14,46,3.30
2009,03,15,14,47,6.00
2009,03,15,14,48,10.00
2009,03,15,14,49,5.10
2009,03,15,14,50,4.10
2009,03,15,14,51,9.00
2009,03,15,14,52,17.10
2009,03,15,14,53,6.70
2009,03,15,14,54,18.00
2009,03,15,14,55,16.00
2009,03,15,14,56,8.10
2009,03,15,14,57,17.70
2009,03,15,14,58,14.30
2009,03,15,14,59,14.20
2009,03,15,15,00,14.60
2009,03,15,15,01,12.70
2009,03,15,15,02,14.80
2009,03,15,15,03,8.80
2009,03,15,15,04,18.00
2009,03,15,15,05,17.50
2009,03,15,15,06,17.10
2009,03,15,15,07,14.40
2009,03,15,15,08,15.00
2009,03,15,15,09,13.10
2009,03,15,15,10,19.40
2009,03,15,15,11,14.60
2009,03,15,15,12,17.30
2009,03,15,15,13,13.50
2009,03,15,15,14,26.30
2009,03,15,15,15,23.10
2009,03,15,15,16,23.00
2009,03,15,15,17,15.20
2009,03,15,15,18,16.00
2009,03,15,15,19,20.00
2009,03,15,15,20,14.30
2009,03,15,15,21,25.90
2009,03,15,15,22,19.80
2009,03,15,15,23,10.60
2009,03,15,15,24,16.50
2009,03,15,15,25,11.60
2009,03,15,15,26,10.50
2009,03,15,15,27,16.60
2009,03,15,15,28,3.60
2009,03,15,15,29,9.30
2009,03,15,15,30,5.50
2009,03,15,15,31,11.70
2009,03,15,15,32,2.10
2009,03,15,15,33,10.60
2009,03,15,15,34,10.40
2009,03,15,15,35,6.00
2009,03,15,15,36,5.40
2009,03,15,15,37,5.90
2009,03,15,15,38,7.80
2009,03,15,15,39,3.00
2009,03,15,15,40,9.70
2009,03,15,15,41,9.60
2009,03,15,15,42,8.50
2009,03,15,15,43,5.50
2009,03,15,15,44,5.50
2009,03,15,15,45,3.80
2009,03,15,15,46,9.90
2009,03,15,15,47,13.30
2009,03,15,15,48,16.00
2009,03,15,15,49,7.10
2009,03,15,15,50,4.90
2009,03,15,15,51,8.90
2009,03,15,15,52,5.40
2009,03,15,15,53,8.30
2009,03,15,15,54,8.20
2009,03,15,15,55,12.40
2009,03,15,15,56,9.80
2009,03,15,15,57,5.50
2009,03,15,15,58,8.10
2009,03,15,15,59,7.20
2009,03,15,16,00,11.70
2009,03,15,16,01,5.80
2009,03,15,16,02,2.70
2009,03,15,16,03,4.40
2009,03,15,16,04,0.30
2009,03,15,16,05,6.40
2009,03,15,16,06,9.70
2009,03,15,16,07,9.30
2009,03,15,16,08,9.10
2009,03,15,16,09,6.20
2009,03,15,16,10,1.80
2009,03,15,16,11,8.00
2009,03,15,16,12,10.40
2009,03,15,16,13,19.90
2009,03,15,16,14,25.00
2009,03,15,16,15,14.50
2009,03,15,16,16,23.10
2009,03,15,16,17,11.00
2009,03,15,16,18,20.10
2009,03,15,16,19,11.40
2009,03,15,16,20,10.90
2009,03,15,16,21,7.00
2009,03,15,16,22,14.20
2009,03,15,16,23,13.50
2009,03,15,16,24,18.00
2009,03,15,16,25,9.90
2009,03,15,16,26,10.20
2009,03,15,16,27,14.20
2009,03,15,16,28,15.80
2009,03,15,16,29,11.60
2009,03,15,16,30,5.80
2009,03,15,16,31,8.80
2009,03,15,16,32,10.20
2009,03,15,16,33,5.00
2009,03,15,16,34,7.90
2009,03,15,16,35,10.90
2009,03,15,16,36,10.00
2009,03,15,16,37,7.70
2009,03,15,16,38,13.60
2009,03,15,16,39,8.60
2009,03,15,16,40,9.30
2009,03,15,16,41,11.70
2009,03,15,16,42,5.00
2009,03,15,16,43,13.00
2009,03,15,16,44,12.40
2009,03,15,16,45,10.80
2009,03,15,16,46,6.10
2009,03,15,16,47,12.60
2009,03,15,16,48,6.80
2009,03,15,16,49,11.40
2009,03,15,16,50,9.70
2009,03,15,16,51,9.80
2009,03,15,16,52,9.10
2009,03,15,16,53,4.80
2009,03,15,16,54,2.00
2009,03,15,16,55,2.20
2009,03,15,16,56,10.10
2009,03,15,16,57,3.40
2009,03,15,16,58,3.30
2009,03,15,16,59,2.80
2009,03,15,17,00,6.40
2009,03,15,17,01,3.30
2009,03,15,17,02,1.50
2009,03,15,17,03,3.40
2009,03,15,17,04,3.30
2009,03,15,17,05,10.40
2009,03,15,17,06,6.20
2009,03,15,17,07,4.10
2009,03,15,17,08,2.90
2009,03,15,17,09,1.40
2009,03,15,17,10,3.60
2009,03,15,17,11,5.70
2009,03,15,17,12,6.30
2009,03,15,17,13,3.40
2009,03,15,17,14,6.30
2009,03,15,17,15,2.30
2009,03,15,17,16,3.50
2009,03,15,17,17,5.90
2009,03,15,17,18,6.90
2009,03,15,17,19,4.90
2009,03,15,17,20,12.10
2009,03,15,17,21,3.90
2009,03,15,17,22,4.70
2009,03,15,17,23,6.40
2009,03,15,17,24,3.20
2009,03,15,17,25,6.40
2009,03,15,17,26,6.10
2009,03,15,17,27,9.30
2009,03,15,17,28,11.90
2009,03,15,17,29,4.70
2009,03,15,17,30,7.70
2009,03,15,17,31,7.90
2009,03,15,17,32,17.70
2009,03,15,17,33,15.70
2009,03,15,17,34,9.90
2009,03,15,17,35,6.80
2009,03,15,17,36,14.00
2009,03,15,17,37,19.60
2009,03,15,17,38,13.60
2009,03,15,17,39,5.90
2009,03,15,17,40,3.20
2009,03,15,17,41,8.70
2009,03,15,17,42,11.00
2009,03,15,17,43,4.40
2009,03,15,17,44,7.50
2009,03,15,17,45,6.40
2009,03,15,17,46,9.00
2009,03,15,17,47,4.20
2009,03,15,17,48,11.50
2009,03,15,17,49,3.20
2009,03,15,17,50,6.50
2009,03,15,17,51,3.70
2009,03,15,17,52,3.50
2009,03,15,17,53,5.20
2009,03,15,17,54,5.20
2009,03,15,17,55,11.60
2009,03,15,17,56,14.90
2009,03,15,17,57,14.20
2009,03,15,17,58,8.60
2009,03,15,17,59,18.10
2009,03,15,18,00,21.10
2009,03,15,18,01,7.30